Time,TemperatureF,DewpointF,PressureIn,WindDirection,WindDirectionDegrees,WindSpeedMPH,WindSpeedGustMPH,Humidity,HourlyPrecipIn,Conditions,Clouds,dailyrainin,SolarRadiationWatts/m^2,SoftwareType,DateUTC
2013-01-20 00:00:00,44.0,-9.0,-100.00,SSE,157,3.0,6.0,10,0.00,,,0.00,0.000000,,2013-01-20 08:00:00,
2013-01-20 00:22:00,44.0,-9.0,-100.00,SSE,157,3.0,6.0,10,0.00,,,0.00,0.000000,,2013-01-20 08:22:00,
2013-01-20 00:32:00,44.0,-9.0,-100.00,SSE,157,3.0,6.0,10,0.00,,,0.00,0.000000,,2013-01-20 08:32:00,
2013-01-20 00:42:00,44.0,-9.0,-100.00,SSE,157,3.0,6.0,10,0.00,,,0.00,0.000000,,2013-01-20 08:42:00,
2013-01-20 00:52:00,44.0,-9.0,-100.00,SSE,157,3.0,6.0,10,0.00,,,0.00,0.000000,,2013-01-20 08:52:00,
2013-01-20 01:00:00,43.0,-8.0,-100.00,SSW,192,2.0,6.0,11,0.00,,,0.00,0.000000,,2013-01-20 09:00:00,
2013-01-20 01:33:00,43.0,-8.0,-100.00,SSW,192,2.0,6.0,11,0.00,,,0.00,0.000000,,2013-01-20 09:33:00,
2013-01-20 01:42:00,43.0,-8.0,-100.00,SSW,192,2.0,6.0,11,0.00,,,0.00,0.000000,,2013-01-20 09:42:00,
2013-01-20 01:52:00,43.0,-8.0,-100.00,SSW,192,2.0,6.0,11,0.00,,,0.00,0.000000,,2013-01-20 09:52:00,
2013-01-20 02:00:00,41.0,-9.0,-100.00,WNW,296,0.0,3.0,11,0.00,,,0.00,0.000000,,2013-01-20 10:00:00,
2013-01-20 02:32:00,41.0,-9.0,-100.00,WNW,296,0.0,3.0,11,0.00,,,0.00,0.000000,,2013-01-20 10:32:00,
2013-01-20 02:42:00,41.0,-9.0,-100.00,WNW,296,0.0,3.0,11,0.00,,,0.00,0.000000,,2013-01-20 10:42:00,
2013-01-20 02:52:00,41.0,-9.0,-100.00,WNW,296,0.0,3.0,11,0.00,,,0.00,0.000000,,2013-01-20 10:52:00,
2013-01-20 03:00:00,43.0,-10.0,-100.00,South,187,1.0,5.0,10,0.00,,,0.00,0.000000,,2013-01-20 11:00:00,
2013-01-20 03:22:00,43.0,-10.0,-100.00,South,187,1.0,5.0,10,0.00,,,0.00,0.000000,,2013-01-20 11:22:00,
2013-01-20 03:33:00,43.0,-10.0,-100.00,South,187,1.0,5.0,10,0.00,,,0.00,0.000000,,2013-01-20 11:33:00,
2013-01-20 03:43:00,43.0,-10.0,-100.00,South,187,1.0,5.0,10,0.00,,,0.00,0.000000,,2013-01-20 11:43:00,
2013-01-20 03:53:00,43.0,-10.0,-100.00,South,187,1.0,5.0,10,0.00,,,0.00,0.000000,,2013-01-20 11:53:00,
2013-01-20 04:00:00,42.0,-11.0,-100.00,SW,227,1.0,3.0,10,0.00,,,-99.99,0.000000,,2013-01-20 12:00:00,
2013-01-20 04:33:00,42.0,-11.0,-100.00,SW,227,1.0,3.0,10,0.00,,,-99.99,0.000000,,2013-01-20 12:33:00,
2013-01-20 04:43:00,42.0,-11.0,-100.00,SW,227,1.0,3.0,10,0.00,,,-99.99,0.000000,,2013-01-20 12:43:00,
2013-01-20 04:53:00,42.0,-11.0,-100.00,SW,227,1.0,3.0,10,0.00,,,-99.99,0.000000,,2013-01-20 12:53:00,
2013-01-20 05:00:00,42.0,-11.0,-100.00,WSW,257,1.0,4.0,10,0.00,,,0.00,0.000000,,2013-01-20 13:00:00,
2013-01-20 05:33:00,42.0,-11.0,-100.00,WSW,257,1.0,4.0,10,0.00,,,0.00,0.000000,,2013-01-20 13:33:00,
2013-01-20 05:43:00,42.0,-11.0,-100.00,WSW,257,1.0,4.0,10,0.00,,,0.00,0.000000,,2013-01-20 13:43:00,
2013-01-20 05:52:00,42.0,-11.0,-100.00,WSW,257,1.0,4.0,10,0.00,,,0.00,0.000000,,2013-01-20 13:52:00,
2013-01-20 06:00:00,41.0,-9.0,-100.00,WSW,253,3.0,7.0,11,0.00,,,0.00,0.000000,,2013-01-20 14:00:00,
2013-01-20 06:23:00,41.0,-9.0,-100.00,WSW,253,3.0,7.0,11,0.00,,,0.00,0.000000,,2013-01-20 14:23:00,
2013-01-20 06:33:00,41.0,-9.0,-100.00,WSW,253,3.0,7.0,11,0.00,,,0.00,0.000000,,2013-01-20 14:33:00,
2013-01-20 06:43:00,41.0,-9.0,-100.00,WSW,253,3.0,7.0,11,0.00,,,0.00,0.000000,,2013-01-20 14:43:00,
2013-01-20 06:53:00,41.0,-9.0,-100.00,WSW,253,3.0,7.0,11,0.00,,,0.00,0.000000,,2013-01-20 14:53:00,
2013-01-20 07:00:00,42.0,-11.0,-100.00,SSW,209,1.0,7.0,10,0.00,,,0.00,0.000000,,2013-01-20 15:00:00,
2013-01-20 07:33:00,42.0,-11.0,-100.00,SSW,209,1.0,7.0,10,0.00,,,0.00,0.000000,,2013-01-20 15:33:00,
2013-01-20 07:43:00,42.0,-11.0,-100.00,SSW,209,1.0,7.0,10,0.00,,,0.00,0.000000,,2013-01-20 15:43:00,
2013-01-20 07:53:00,42.0,-11.0,-100.00,SSW,209,1.0,7.0,10,0.00,,,0.00,0.000000,,2013-01-20 15:53:00,
2013-01-20 08:33:00,43.0,-10.0,-100.00,WNW,284,0.0,4.0,10,0.00,,,0.00,17.000000,,2013-01-20 16:33:00,
2013-01-20 08:43:00,43.0,-10.0,-100.00,WNW,284,0.0,4.0,10,0.00,,,0.00,17.000000,,2013-01-20 16:43:00,
2013-01-20 08:53:00,43.0,-10.0,-100.00,WNW,284,0.0,4.0,10,0.00,,,0.00,17.000000,,2013-01-20 16:53:00,
2013-01-20 09:00:00,53.0,-4.0,-100.00,ESE,108,2.0,6.0,9,0.00,,,0.00,193.000000,,2013-01-20 17:00:00,
2013-01-20 09:33:00,53.0,-4.0,-100.00,ESE,108,2.0,6.0,9,0.00,,,0.00,193.000000,,2013-01-20 17:33:00,
2013-01-20 09:43:00,53.0,-4.0,-100.00,ESE,108,2.0,6.0,9,0.00,,,0.00,193.000000,,2013-01-20 17:43:00,
2013-01-20 09:53:00,53.0,-4.0,-100.00,ESE,108,2.0,6.0,9,0.00,,,0.00,193.000000,,2013-01-20 17:53:00,
2013-01-20 10:00:00,60.0,-7.0,-100.00,SSE,156,2.0,5.0,6,0.00,,,-99.99,488.000000,,2013-01-20 18:00:00,
2013-01-20 10:24:00,60.0,-7.0,-100.00,SSE,156,2.0,5.0,6,0.00,,,-99.99,488.000000,,2013-01-20 18:24:00,
2013-01-20 10:33:00,60.0,-7.0,-100.00,SSE,156,2.0,5.0,6,0.00,,,-99.99,488.000000,,2013-01-20 18:33:00,
2013-01-20 10:43:00,60.0,-7.0,-100.00,SSE,156,2.0,5.0,6,0.00,,,-99.99,488.000000,,2013-01-20 18:43:00,
2013-01-20 10:53:00,60.0,-7.0,-100.00,SSE,156,2.0,5.0,6,0.00,,,-99.99,488.000000,,2013-01-20 18:53:00,
2013-01-20 11:00:00,62.0,-6.0,-100.00,ESE,118,3.0,8.0,6,0.00,,,0.00,642.000000,,2013-01-20 19:00:00,
2013-01-20 11:33:00,62.0,-6.0,-100.00,ESE,118,3.0,8.0,6,0.00,,,0.00,642.000000,,2013-01-20 19:33:00,
2013-01-20 11:43:00,62.0,-6.0,-100.00,ESE,118,3.0,8.0,6,0.00,,,0.00,642.000000,,2013-01-20 19:43:00,
2013-01-20 11:52:00,62.0,-6.0,-100.00,ESE,118,3.0,8.0,6,0.00,,,0.00,642.000000,,2013-01-20 19:52:00,
2013-01-20 12:00:00,64.0,-5.0,-100.00,ESE,107,3.0,9.0,6,0.00,,,0.00,717.000000,,2013-01-20 20:00:00,
2013-01-20 12:33:00,64.0,-5.0,-100.00,ESE,107,3.0,9.0,6,0.00,,,0.00,717.000000,,2013-01-20 20:33:00,
2013-01-20 12:42:00,64.0,-5.0,-100.00,ESE,107,3.0,9.0,6,0.00,,,0.00,717.000000,,2013-01-20 20:42:00,
2013-01-20 12:53:00,64.0,-5.0,-100.00,ESE,107,3.0,9.0,6,0.00,,,0.00,717.000000,,2013-01-20 20:53:00,
2013-01-20 13:00:00,64.0,-5.0,-100.00,WNW,300,3.0,10.0,6,0.00,,,0.00,724.000000,,2013-01-20 21:00:00,
2013-01-20 13:33:00,64.0,-5.0,-100.00,WNW,300,3.0,10.0,6,0.00,,,0.00,724.000000,,2013-01-20 21:33:00,
2013-01-20 13:43:00,64.0,-5.0,-100.00,WNW,300,3.0,10.0,6,0.00,,,0.00,724.000000,,2013-01-20 21:43:00,
2013-01-20 13:53:00,64.0,-5.0,-100.00,WNW,300,3.0,10.0,6,0.00,,,0.00,724.000000,,2013-01-20 21:53:00,
2013-01-20 14:00:00,64.0,-8.0,-100.00,SSE,151,3.0,10.0,5,0.00,,,0.00,661.000000,,2013-01-20 22:00:00,
2013-01-20 14:33:00,64.0,-8.0,-100.00,SSE,151,3.0,10.0,5,0.00,,,0.00,661.000000,,2013-01-20 22:33:00,
2013-01-20 14:43:00,64.0,-8.0,-100.00,SSE,151,3.0,10.0,5,0.00,,,0.00,661.000000,,2013-01-20 22:43:00,
2013-01-20 14:53:00,64.0,-8.0,-100.00,SSE,151,3.0,10.0,5,0.00,,,0.00,661.000000,,2013-01-20 22:53:00,
2013-01-20 15:00:00,62.0,-10.0,-100.00,East,98,2.0,9.0,5,0.00,,,0.00,532.000000,,2013-01-20 23:00:00,
2013-01-20 15:23:00,62.0,-10.0,-100.00,East,98,2.0,9.0,5,0.00,,,0.00,532.000000,,2013-01-20 23:23:00,
2013-01-20 15:33:00,62.0,-10.0,-100.00,East,98,2.0,9.0,5,0.00,,,0.00,532.000000,,2013-01-20 23:33:00,
2013-01-20 15:43:00,62.0,-10.0,-100.00,East,98,2.0,9.0,5,0.00,,,0.00,532.000000,,2013-01-20 23:43:00,
2013-01-20 15:53:00,62.0,-10.0,-100.00,East,98,2.0,9.0,5,0.00,,,0.00,532.000000,,2013-01-20 23:53:00,
2013-01-20 16:00:00,61.0,-7.0,-100.00,SSW,207,2.0,6.0,6,0.00,,,0.00,348.000000,,2013-01-21 00:00:00,
2013-01-20 16:23:00,61.0,-7.0,-100.00,SSW,207,2.0,6.0,6,0.00,,,0.00,348.000000,,2013-01-21 00:23:00,
2013-01-20 16:33:00,61.0,-7.0,-100.00,SSW,207,2.0,6.0,6,0.00,,,0.00,348.000000,,2013-01-21 00:33:00,
2013-01-20 16:43:00,61.0,-7.0,-100.00,SSW,207,2.0,6.0,6,0.00,,,0.00,348.000000,,2013-01-21 00:43:00,
2013-01-20 16:53:00,61.0,-7.0,-100.00,SSW,207,2.0,6.0,6,0.00,,,0.00,348.000000,,2013-01-21 00:53:00,
2013-01-20 17:00:00,51.0,-8.0,-100.00,South,176,2.0,9.0,8,-99.99,,,0.00,119.000000,,2013-01-21 01:00:00,
2013-01-20 17:33:00,51.0,-8.0,-100.00,South,176,2.0,9.0,8,-99.99,,,0.00,119.000000,,2013-01-21 01:33:00,
2013-01-20 17:43:00,51.0,-8.0,-100.00,South,176,2.0,9.0,8,-99.99,,,0.00,119.000000,,2013-01-21 01:43:00,
2013-01-20 17:53:00,51.0,-8.0,-100.00,South,176,2.0,9.0,8,-99.99,,,0.00,119.000000,,2013-01-21 01:53:00,
2013-01-20 18:00:00,49.0,-10.0,-100.00,ESE,105,3.0,10.0,8,0.00,,,0.00,1.000000,,2013-01-21 02:00:00,
2013-01-20 18:23:00,49.0,-10.0,-100.00,ESE,105,3.0,10.0,8,0.00,,,0.00,1.000000,,2013-01-21 02:23:00,
2013-01-20 18:33:00,49.0,-10.0,-100.00,ESE,105,3.0,10.0,8,0.00,,,0.00,1.000000,,2013-01-21 02:33:00,
2013-01-20 18:43:00,49.0,-10.0,-100.00,ESE,105,3.0,10.0,8,0.00,,,0.00,1.000000,,2013-01-21 02:43:00,
2013-01-20 18:53:00,49.0,-10.0,-100.00,ESE,105,3.0,10.0,8,0.00,,,0.00,1.000000,,2013-01-21 02:53:00,
2013-01-20 19:00:00,47.0,-11.0,-100.00,ESE,114,3.0,11.0,8,0.00,,,0.00,0.000000,,2013-01-21 03:00:00,
2013-01-20 19:33:00,47.0,-11.0,-100.00,ESE,114,3.0,11.0,8,0.00,,,0.00,0.000000,,2013-01-21 03:33:00,
2013-01-20 19:43:00,47.0,-11.0,-100.00,ESE,114,3.0,11.0,8,0.00,,,0.00,0.000000,,2013-01-21 03:43:00,
2013-01-20 19:53:00,47.0,-11.0,-100.00,ESE,114,3.0,11.0,8,0.00,,,0.00,0.000000,,2013-01-21 03:53:00,
2013-01-20 20:00:00,49.0,-10.0,-100.00,ENE,58,5.0,10.0,8,0.00,,,0.00,0.000000,,2013-01-21 04:00:00,
2013-01-20 20:33:00,49.0,-10.0,-100.00,ENE,58,5.0,10.0,8,0.00,,,0.00,0.000000,,2013-01-21 04:33:00,
2013-01-20 20:43:00,49.0,-10.0,-100.00,ENE,58,5.0,10.0,8,0.00,,,0.00,0.000000,,2013-01-21 04:43:00,
2013-01-20 20:53:00,49.0,-10.0,-100.00,ENE,58,5.0,10.0,8,0.00,,,0.00,0.000000,,2013-01-21 04:53:00,
2013-01-20 21:00:00,47.0,-9.0,-100.00,WNW,299,3.0,11.0,9,0.00,,,0.00,0.000000,,2013-01-21 05:00:00,
2013-01-20 21:22:00,47.0,-9.0,-100.00,WNW,299,3.0,11.0,9,0.00,,,0.00,0.000000,,2013-01-21 05:22:00,
2013-01-20 21:34:00,47.0,-9.0,-100.00,WNW,299,3.0,11.0,9,0.00,,,0.00,0.000000,,2013-01-21 05:34:00,
2013-01-20 21:42:00,47.0,-9.0,-100.00,WNW,299,3.0,11.0,9,0.00,,,0.00,0.000000,,2013-01-21 05:42:00,
2013-01-20 21:53:00,47.0,-9.0,-100.00,WNW,299,3.0,11.0,9,0.00,,,0.00,0.000000,,2013-01-21 05:53:00,
2013-01-20 22:00:00,48.0,-8.0,-100.00,NE,45,5.0,13.0,9,0.00,,,0.00,0.000000,,2013-01-21 06:00:00,
2013-01-20 22:33:00,48.0,-8.0,-100.00,NE,45,5.0,13.0,9,0.00,,,0.00,0.000000,,2013-01-21 06:33:00,
2013-01-20 22:43:00,48.0,-8.0,-100.00,NE,45,5.0,13.0,9,0.00,,,0.00,0.000000,,2013-01-21 06:43:00,
2013-01-20 22:53:00,48.0,-8.0,-100.00,NE,45,5.0,13.0,9,0.00,,,0.00,0.000000,,2013-01-21 06:53:00,
2013-01-20 23:00:00,49.0,-7.0,-100.00,NE,50,4.0,11.0,9,0.00,,,0.00,0.000000,,2013-01-21 07:00:00,
2013-01-20 23:33:00,49.0,-7.0,-100.00,NE,50,4.0,11.0,9,0.00,,,0.00,0.000000,,2013-01-21 07:33:00,
2013-01-20 23:42:00,49.0,-7.0,-100.00,NE,50,4.0,11.0,9,0.00,,,0.00,0.000000,,2013-01-21 07:42:00,
2013-01-20 23:53:00,49.0,-7.0,-100.00,NE,50,4.0,11.0,9,0.00,,,0.00,0.000000,,2013-01-21 07:53:00,